www.pogodaiklimat.ru

Погода и климат >> Архив погоды >> Ирак >> Басра аэропорт


ПОГОДА в Басре аэропорт

  • Прогноз погоды в Басре аэропорт
  • Монитор погоды в Басре аэропорт

АРХИВ ПОГОДЫ в Басре аэропорт

Время (UTC), дата Ветер
(напр.,м/с)
 
Видим.   Явления Облачность Т
(С)
Тd
(С)
f
(%)
Тe
(С)
Тes
(С)
Комфортность P
(гПа)
Po
(гПа)
Тmin
(С)
Tmax
(С)
R
(мм)
R24
(мм)
S
(см)
18 14.07 З 6 10 км ясно +35.3 +12.0 24 +35 +35 очень
жарко
999.6 999.3 +43.8
21 14.07 З 5 10 км ясно +32.1 +14.8 35 +34 +34 душно 999.3 999.0
00 15.07 З 3 10 км ясно +28.1 +14.8 44 +31 +31 душно 998.7 998.4
03 15.07 З 5 10 км ясно +28.5 +13.8 41 +30 +31 жарко 999.0 998.7
06 15.07 З 6 10 км ясно +38.0 +10.3 19 +37 +42 очень
жарко
999.8 999.5 +26.8
09 15.07 З 11 10 км ясно +42.8 +5.6 11 +40 +40 очень
жарко
999.0 998.7
12 15.07 З 11 10 км ясно +44.6 +3.4 8 +41 +41 опасность
перегрева
997.6 997.3
15 15.07 З 10 10 км ясно +41.7 +7.6 13 +39 +39 очень
жарко
996.5 996.2
18 15.07 З 7 10 км ясно +35.6 +10.7 22 +35 +35 очень
жарко
997.4 997.1 +44.8
21 15.07 З 8 10 км ясно +33.2 +9.8 24 +32 +32 жарко 996.8 996.5
00 16.07 З 7 10 км ясно +30.3 +11.7 32 +31 +31 жарко 995.9 995.6
03 16.07 ЮЗ 5 10 км 1/0
[Ci fib]
+29.8 +9.9 29 +30 +30 жарко 996.1 995.8
06 16.07 З 10 10 км ясно +40.0 +6.4 13 +37 +38 очень
жарко
997.3 997.0 +29.4
09 16.07 З 15 10 км ясно +45.9 +3.2 8 +43 +43 опасность
перегрева
996.6 996.3
12 16.07 З 15 10 км ясно +45.8 +3.3 8 +43 +43 опасность
перегрева
996.1 995.8
15 16.07 З 10 10 км ясно +41.3 +5.1 11 +38 +38 очень
жарко
996.1 995.8
18 16.07 З 6 10 км ясно +34.6 +11.4 24 +34 +34 очень
жарко
997.8 997.5 +46.9
21 16.07 ЮЗ 7 10 км ясно +32.1 +11.2 28 +32 +32 жарко 997.8 997.5
00 17.07 З 5 10 км ясно +29.3 +13.0 37 +31 +31 жарко 997.3 997.0
03 17.07 З 5 10 км 1/0
[Ci fib]
+27.8 +12.2 38 +29 +30 жарко 998.3 998.0
06 17.07 ЮЗ 8 10 км 4/4 1200 м
[Cu hum Ac trans Ci fib]
+36.6 +9.9 20 +35 +37 очень
жарко
999.0 998.7 +27.4
09 17.07 З 15 10 км 4/4 1050 м
[Cu hum Ac trans]
+42.1 +8.8 14 +40 +40 очень
жарко
999.2 998.9
12 17.07 З 15 10 км 5/3 1200 м
[Cu hum Ac trans]
+42.3 +7.3 12 +40 +40 очень
жарко
997.3 997.0
15 17.07 З 9 10 км 3/0
[Ac trans]
+39.9 +9.1 16 +38 +38 очень
жарко
998.1 997.8
18 17.07 З 5 10 км ясно +34.3 +13.1 28 +35 +35 очень
жарко
999.1 998.8 +43.8
00 18.07 ЮЗ 5 10 км ясно +30.1 +9.3 27 +30 +30 жарко 997.8 997.5
03 18.07 ЮЗ 6 10 км ясно +28.5 +9.9 31 +29 +29 жарко 998.1 997.8
06 18.07 З 9 10 км 1/0
[Ac trans Ci fib]
+36.3 +10.7 21 +35 +37 очень
жарко
998.2 997.9 +27.9
09 18.07 СЗ 14 8000 м пыльный позёмок 1/0
[Ac trans Ci fib]
+45.5 +7.6 11 +43 +43 опасность
перегрева
997.0 996.7
12 18.07 З 14 5000 м пыльный позёмок 1/0
[Ac trans Ci fib]
+47.1 +5.4 8 +44 +44 опасность
перегрева
996.4 996.1
18 18.07 З 5 10 км ясно +36.2 +8.8 19 +35 +35 очень
жарко
997.3 997.0 +47.6
21 18.07 З 10 10 км ясно +33.5 +11.6 26 +33 +33 жарко 997.2 996.9
00 19.07 З 6 10 км ясно +31.1 +11.4 30 +31 +31 жарко 997.0 996.7
03 19.07 З 6 10 км 4/0
[Ac trans]
+31.0 +10.9 29 +31 +31 жарко 998.0 997.7
06 19.07 З 14 10 км 4/0
[Ac trans Ci fib]
+39.7 +6.8 14 +37 +37 очень
жарко
998.3 998.0 +30.9
12 19.07 З 15 6000 м пыльный позёмок 3/0
[Ac trans Ci fib]
+45.4 +6.8 10 +43 +43 опасность
перегрева
997.4 997.1
15 19.07 З 8 10 км 3/0
[Ac trans Ci fib]
+41.0 +11.3 17 +40 +40 очень
жарко
997.3 997.0
18 19.07 З 6 10 км 1/0
[Ci fib]
+34.7 +12.4 26 +35 +35 очень
жарко
998.8 998.5 +46.3
21 19.07 З 5 10 км 3/0
[Ci fib]
+32.7 +10.9 26 +32 +32 жарко 998.9 998.6
00 20.07 З 7 10 км 1/0
[Ci fib]
+30.7 +13.0 34 +32 +32 жарко 998.6 998.3
03 20.07 З 5 10 км 4/0
[Ac trans Ci fib]
+29.4 +13.4 37 +31 +31 жарко 999.7 999.4
06 20.07 З 9 10 км 4/0
[Ac trans]
+37.0 +11.3 21 +36 +37 очень
жарко
1000.6 1000.3 +29.3
09 20.07 З 10 10 км ясно +43.2 +10.3 14 +42 +43 опасность
перегрева
1000.2 999.9
18 20.07 З 6 10 км 1/0
[Ci fib]
+35.7 +14.1 27 +36 +36 очень
жарко
999.3 999.0 +45.4
21 20.07 З 5 10 км ясно +31.3 +13.4 34 +33 +33 жарко 999.9 999.6
00 21.07 З 4 10 км ясно +29.7 +10.5 30 +30 +30 жарко 999.7 999.4
03 21.07 З 3 10 км 3/0
[Ac trans]
+28.6 +4.8 22 +27 +28 жарко 1000.1 999.8
06 21.07 З 6 10 км ясно +38.3 +10.7 19 +37 +42 очень
жарко
1000.7 1000.4 +27.1
09 21.07 З 5 10 км ясно +44.8 +9.6 13 +43 +55 опасность
перегрева
999.8 999.5
12 21.07 З 8 10 км 3/0
[Ac trans]
+46.8 +10.5 12 +45 +47 опасность
перегрева
998.1 997.8
15 21.07 З 8 10 км 3/0
[Ac trans]
+44.3 +8.1 12 +42 +42 опасность
перегрева
997.0 996.7

 

Местоположение метеостанции Басра аэропорт (Ирак): широта 30.52 долгота 47.78 высота над уровнем моря 3 м.

В архиве по умолчанию представлена погода в Басре аэропорт за последнюю неделю. Архивные данные за месяц целиком и за предыдущие месяцы, начиная с января 2011 года, Вы можете получить, выбрав интересующий диапазон дат из раскрывающегося списка и нажав кнопку "Ввод!".


*Определитесь, кто Вы:
робот инопланетянин человек

Внимание! Время в таблицах - всемирное. Для получения местного времени необходимо прибавить поправку, которая равна 3 ч.

Смотрите также архив погоды в соседних городах и на ближайших метеорологических станциях:

Погода в Басре (Ирак) (6 км)
Погода в Абадане (Иран) (48 км)
Погода в Абдали (Кувейт) (50 км)
Погода на Метеостанции Sabriyah (Кувейт) (86 км)
Погода на Метеостанции Mintribah (Кувейт) (87 км)
Погода в Эль-Фао (Ирак) (92 км)
Погода на Бубияне (Кувейт) (101 км)
Погода на Метеостанции Jal Aliyah (Кувейт) (103 км)
Погода в Ахвазе (Иран) (124 км)
Погода Остров Файлака (Кувейт) (126 км)

Пояснения к столбцам:

Ветер - указаны скорость ветра в м/с - средняя за 10 мин, порывы в срок и между сроками (в фигурных скобках) и направление, откуда дует ветер: С - северный, СВ - северо-восточный, В - восточный, ЮВ - юго-восточный, Ю - южный, ЮЗ - юго-западный, З - западный, СЗ - северо-западный.
Видимость - горизонтальная дальность видимости в метрах или километрах. При видимости от 1 до 10 км при отсутствии осадков обычно наблюдается дымка, при ухудшении видимости до 1 км и менее - туман. В сухую погоду видимость может ухудшаться дымом, пылью или мглою.
Явления - указаны атмосферные явления, наблюдавшиеся в срок или в последний час перед сроком; фигурными скобками обозначены явления, наблюдавшиеся между сроками (за 1-3 часа до срока); квадратными скобками обозначены град или гололедные отложения с указанием их диаметра в мм.
Облачность - указаны через наклонную черту общая и нижняя облачность в баллах и высота нижней границы облаков в метрах; квадратными скобками обозначены формы облаков: Ci - перистые, Cs - перисто-слоистые, Cc - перисто-кучевые, Ac - высококучевые, As - высокослоистые, Sc - слоисто-кучевые, Ns - слоисто-дождевые, Cu - кучевые, Cb - кучево-дождевые. Подробнее классификацию облаков см. в Атласе облаков (PDF).
T - Температура воздуха - температура, измеренная на высоте 2 м над землей.
Td - Температура точки росы - температура, при понижении до которой содержащийся в воздухе водяной пар достигнет насыщения.
f - Относительная влажность воздуха - влажноcть воздуха, измеренная на высоте 2 м над землей.
Te - Эффективная температура - температура, которую ощущает одетый по сезону человек в тени. Характеристика душности погоды. При расчете учитывается влияние влажности воздуха и скорости ветра на теплоощущения человека.
Tes - Эффективная температура на солнце - температура, которую ощущает человек, с поправкой на солнечный нагрев. Характеристика знойности погоды. Зависит от высоты солнца над горизонтом, облачности и скорости ветра. Ночью, в пасмурную погоду, а также при ветре 12 м/с и более поправка равна нулю.
P - Атмосферное давление - приведенное к уровню моря атмосферное давление.
Po - Атмосферное давление - измеренное на уровне метеостанции атмосферное давление.
Tmin - Минимальная температура - минимум температуры воздуха на высоте 2 м над землей.
Tmax - Максимальная температура - максимум температуры воздуха на высоте 2 м над землей.
R - Количество осадков - Количество выпавших осадков за период времени, мм. При наведении курсора мыши на число - период времени, за который выпало указанное количество осадков.
R24 - Количество осадков - Количество выпавших осадков за 24 часа, мм.
S - Снежный покров - Высота снежного покрова, см. При наведении курсора мыши на число - состояние снежного покрова и степень покрытия местности в баллах.